• In Russia
  • List of Countries
  • For 7 days
  • Water Temperature
  • Satellite Maps
  • Weather Map
  • Weather Widgets
  • user-avatar
    Login

    Hourly Weather Fier

    Today, 4 December, Sunday

    Time Temperature Precipitation Wind Pressure Humidity
    00:00 +9°C° 0 mm 2 mps 766 mmHg 78%
    01:00 +9°C° 0 mm 2 mps 766 mmHg 78%
    02:00 +8°C° 0 mm 2 mps 766 mmHg 80%
    03:00 +8°C° 0 mm 2 mps 766 mmHg 81%
    04:00 +8°C° 0 mm 2 mps 766 mmHg 83%
    05:00 +8°C° 0 mm 2 mps 766 mmHg 83%
    06:00 +8°C° 0 mm 3 mps 766 mmHg 83%
    07:00 +8°C° 0 mm 3 mps 767 mmHg 83%
    08:00 +9°C° 0 mm 3 mps 767 mmHg 77%
    09:00 +11°C° 0 mm 3 mps 767 mmHg 71%
    10:00 +14°C° 0 mm 2 mps 767 mmHg 64%
    11:00 +14°C° 0 mm 2 mps 767 mmHg 62%
    12:00 +15°C° 0 mm 2 mps 767 mmHg 60%
    13:00 +16°C° 0 mm 2 mps 767 mmHg 58%
    14:00 +15°C° 0 mm 2 mps 767 mmHg 63%
    15:00 +13°C° 0 mm 2 mps 767 mmHg 68%
    16:00 +12°C° 0 mm 2 mps 767 mmHg 72%
    17:00 +12°C° 0 mm 2 mps 767 mmHg 74%
    18:00 +10°C° 0 mm 2 mps 767 mmHg 75%
    19:00 +9°C° 0 mm 2 mps 768 mmHg 76%
    20:00 +9°C° 0 mm 2 mps 768 mmHg 77%
    21:00 +9°C° 0 mm 3 mps 768 mmHg 77%
    22:00 +8°C° 0 mm 3 mps 769 mmHg 78%
    23:00 +8°C° 0 mm 3 mps 769 mmHg 78%

    Tomorrow, 5 December, Monday

    Time Temperature Precipitation Wind Pressure Humidity
    00:00 +8°C° 0 mm 3 mps 769 mmHg 78%
    01:00 +8°C° 0 mm 3 mps 769 mmHg 78%
    02:00 +8°C° 0 mm 3 mps 769 mmHg 78%
    03:00 +8°C° 0 mm 3 mps 769 mmHg 78%
    04:00 +7°C° 0 mm 3 mps 769 mmHg 78%
    05:00 +7°C° 0 mm 3 mps 770 mmHg 78%
    06:00 +7°C° 0 mm 3 mps 770 mmHg 77%
    07:00 +7°C° 0 mm 3 mps 770 mmHg 77%
    08:00 +9°C° 0 mm 3 mps 770 mmHg 71%
    09:00 +11°C° 0 mm 3 mps 770 mmHg 66%
    10:00 +12°C° 0 mm 3 mps 770 mmHg 60%
    11:00 +14°C° 0 mm 2 mps 770 mmHg 57%
    12:00 +15°C° 0 mm 2 mps 770 mmHg 54%
    13:00 +16°C° 0 mm 2 mps 770 mmHg 51%
    14:00 +15°C° 0 mm 2 mps 770 mmHg 57%
    15:00 +13°C° 0 mm 1 mps 770 mmHg 62%
    16:00 +12°C° 0 mm 1 mps 770 mmHg 68%
    17:00 +12°C° 0 mm 2 mps 770 mmHg 69%
    18:00 +10°C° 0 mm 2 mps 770 mmHg 70%
    19:00 +10°C° 0 mm 2 mps 770 mmHg 71%
    20:00 +9°C° 0 mm 2 mps 770 mmHg 72%
    21:00 +9°C° 0 mm 3 mps 771 mmHg 73%
    22:00 +9°C° 0 mm 3 mps 771 mmHg 73%
    23:00 +9°C° 0.1 mm 3 mps 770 mmHg 73%

    Day after tomorrow, 6 December, Tuesday

    Time Temperature Precipitation Wind Pressure Humidity
    00:00 +9°C° 0.1 mm 3 mps 770 mmHg 73%
    01:00 +9°C° 0.1 mm 3 mps 770 mmHg 73%
    02:00 +9°C° 0.2 mm 3 mps 769 mmHg 73%
    03:00 +10°C° 0.2 mm 3 mps 769 mmHg 73%
    04:00 +10°C° 0.2 mm 3 mps 769 mmHg 73%
    05:00 +10°C° 0.2 mm 3 mps 769 mmHg 74%
    06:00 +10°C° 0.2 mm 3 mps 769 mmHg 75%
    07:00 +10°C° 0.2 mm 3 mps 769 mmHg 75%
    08:00 +12°C° 0 mm 2 mps 769 mmHg 73%
    09:00 +13°C° 0 mm 2 mps 769 mmHg 70%
    10:00 +14°C° 0 mm 2 mps 769 mmHg 67%
    11:00 +15°C° 0 mm 2 mps 769 mmHg 67%
    12:00 +15°C° 0 mm 2 mps 768 mmHg 67%
    13:00 +16°C° 0 mm 2 mps 768 mmHg 67%
    14:00 +15°C° 0 mm 2 mps 768 mmHg 72%
    15:00 +13°C° 0 mm 2 mps 768 mmHg 78%
    16:00 +12°C° 0 mm 2 mps 768 mmHg 83%
    17:00 +12°C° 0 mm 2 mps 768 mmHg 84%
    18:00 +10°C° 0 mm 2 mps 768 mmHg 84%
    19:00 +10°C° 0 mm 2 mps 768 mmHg 85%
    20:00 +10°C° 0 mm 2 mps 768 mmHg 86%
    21:00 +9°C° 0 mm 2 mps 768 mmHg 86%
    22:00 +10°C° 0 mm 1 mps 768 mmHg 87%
    23:00 +9°C° 0 mm 2 mps 768 mmHg 87%

    7 December, Wednesday

    Time Temperature Precipitation Wind Pressure Humidity
    00:00 +9°C° 0 mm 2 mps 768 mmHg 87%
    01:00 +9°C° 0 mm 2 mps 768 mmHg 87%
    02:00 +9°C° 0 mm 2 mps 768 mmHg 86%
    03:00 +9°C° 0 mm 2 mps 768 mmHg 85%
    04:00 +9°C° 0 mm 2 mps 768 mmHg 84%
    05:00 +9°C° 0 mm 3 mps 768 mmHg 84%
    06:00 +9°C° 0 mm 3 mps 768 mmHg 83%
    07:00 +9°C° 0 mm 3 mps 769 mmHg 83%
    08:00 +10°C° 0 mm 3 mps 769 mmHg 76%
    09:00 +12°C° 0 mm 3 mps 769 mmHg 70%
    10:00 +13°C° 0 mm 3 mps 769 mmHg 63%
    11:00 +14°C° 0 mm 3 mps 769 mmHg 60%
    12:00 +14°C° 0 mm 3 mps 769 mmHg 57%
    13:00 +16°C° 0 mm 3 mps 769 mmHg 53%
    14:00 +14°C° 0 mm 4 mps 769 mmHg 58%
    15:00 +12°C° 0 mm 4 mps 769 mmHg 62%
    16:00 +11°C° 0 mm 4 mps 769 mmHg 66%
    17:00 +10°C° 0 mm 4 mps 770 mmHg 67%
    18:00 +10°C° 0 mm 4 mps 771 mmHg 67%
    19:00 +8°C° 0 mm 4 mps 771 mmHg 67%
    20:00 +7°C° 0 mm 4 mps 772 mmHg 67%
    21:00 +7°C° 0 mm 4 mps 772 mmHg 67%
    22:00 +6°C° 0 mm 4 mps 773 mmHg 66%
    23:00 +6°C° 0 mm 4 mps 773 mmHg 66%

    8 December, Thursday

    Time Temperature Precipitation Wind Pressure Humidity
    00:00 +6°C° 0 mm 4 mps 773 mmHg 65%
    01:00 +5°C° 0 mm 4 mps 773 mmHg 64%
    02:00 +5°C° 0 mm 4 mps 773 mmHg 64%
    03:00 +5°C° 0 mm 4 mps 774 mmHg 64%
    04:00 +5°C° 0 mm 4 mps 774 mmHg 64%
    05:00 +4°C° 0 mm 4 mps 774 mmHg 64%
    06:00 +4°C° 0 mm 3 mps 774 mmHg 64%
    07:00 +4°C° 0 mm 3 mps 775 mmHg 64%
    08:00 +7°C° 0 mm 3 mps 775 mmHg 60%
    09:00 +9°C° 0 mm 3 mps 775 mmHg 55%
    10:00 +10°C° 0 mm 2 mps 775 mmHg 50%
    11:00 +12°C° 0 mm 2 mps 775 mmHg 48%
    12:00 +13°C° 0 mm 2 mps 774 mmHg 45%
    13:00 +14°C° 0 mm 1 mps 774 mmHg 42%
    14:00 +13°C° 0 mm 1 mps 774 mmHg 49%
    15:00 +10°C° 0 mm 2 mps 774 mmHg 55%
    16:00 +8°C° 0 mm 2 mps 774 mmHg 62%
    17:00 +8°C° 0 mm 2 mps 774 mmHg 63%
    18:00 +7°C° 0 mm 2 mps 774 mmHg 64%
    19:00 +6°C° 0 mm 2 mps 774 mmHg 66%
    20:00 +6°C° 0 mm 2 mps 774 mmHg 66%
    21:00 +6°C° 0 mm 2 mps 774 mmHg 67%
    22:00 +6°C° 0 mm 2 mps 774 mmHg 67%
    23:00 +5°C° 0 mm 2 mps 773 mmHg 67%

    9 December, Friday

    Time Temperature Precipitation Wind Pressure Humidity
    00:00 +6°C° 0 mm 1 mps 773 mmHg 66%
    01:00 +6°C° 0 mm 1 mps 773 mmHg 66%
    02:00 +6°C° 0 mm 1 mps 773 mmHg 66%
    03:00 +5°C° 0 mm 2 mps 773 mmHg 66%
    04:00 +4°C° 0 mm 2 mps 772 mmHg 66%
    05:00 +4°C° 0 mm 2 mps 772 mmHg 63%
    06:00 +4°C° 0 mm 2 mps 772 mmHg 61%
    07:00 +4°C° 0 mm 2 mps 772 mmHg 58%
    08:00 +6°C° 0 mm 2 mps 772 mmHg 52%
    09:00 +9°C° 0 mm 2 mps 772 mmHg 47%
    10:00 +12°C° 0 mm 2 mps 772 mmHg 41%
    11:00 +13°C° 0 mm 2 mps 771 mmHg 44%
    12:00 +13°C° 0 mm 2 mps 771 mmHg 46%
    13:00 +13°C° 0 mm 2 mps 770 mmHg 48%
    14:00 +12°C° 0 mm 2 mps 770 mmHg 57%
    15:00 +9°C° 0 mm 2 mps 770 mmHg 66%
    16:00 +7°C° 0 mm 2 mps 770 mmHg 75%
    17:00 +7°C° 0 mm 3 mps 770 mmHg 75%
    18:00 +7°C° 0 mm 3 mps 770 mmHg 75%
    19:00 +5°C° 0 mm 3 mps 770 mmHg 76%
    20:00 +6°C° 0 mm 2 mps 770 mmHg 74%
    21:00 +6°C° 0 mm 2 mps 770 mmHg 72%
    22:00 +6°C° 0 mm 2 mps 770 mmHg 70%
    23:00 +6°C° 0 mm 2 mps 769 mmHg 68%
    Show more